Temp_Advection
nan nan nan nan nan nan nan nan nan nan nan nan nan nan nan nan nan nan nan nan nan nan nan nan nan nan nan nan nan nan nan nan nan nan nan nan nan nan nan nan nan nan nan nan nan nan nan
nan 0 0 0 0 0 0 0 0 -0 0 0 -0 0 0 0 0 0 0 -0 -0 0 0 0 -0 -0 -0 0 0 0 0 0 -0 -0 -0 -0 0 -0 -0 0 -0 -0 -0 -0 -0 -0 nan
nan 0 -0 0 0 0 0 0 -0 -0 0 0 0 0 0 0 0 0 0 0 -0 0 0 0 0 -0 -0 0 0 0 0 0 -0 -0 0 0 0 -0 0 -0 -0 0 0 -1 -0 -0 nan
nan -0 -0 -0 -0 -0 -0 -0 -0 0 -0 0 0 0 0 0 0 0 0 0 0 0 0 0 0 -0 -0 -0 0 0 0 0 0 0 -0 0 -0 0 -0 -0 -0 -0 -0 -0 -1 -0 nan
nan -0 -0 -0 -0 -0 -0 -0 -0 -0 -0 -0 -0 -0 0 -0 -0 0 0 0 0 0 0 0 0 -0 -0 0 0 0 0 0 0 0 0 0 0 -0 0 0 -0 -0 0 -0 -1 -0 nan
nan -0 -0 -0 -0 -0 -0 -0 0 -0 -0 -0 -0 -0 -0 -0 -0 -0 -0 0 0 0 0 0 0 0 -0 0 0 0 0 0 0 -0 0 0 0 0 0 -0 0 -0 -0 -0 -0 -0 nan
nan -0 -0 -0 -0 -0 -0 -0 -0 -0 -0 -0 -0 -0 -0 -0 -0 -0 -0 -0 -0 -0 -0 -0 0 -0 -0 -0 0 0 0 0 0 0 0 0 0 -0 -1 -0 -0 0 0 -0 -1 0 nan
nan -0 -0 -0 -0 -0 -0 -0 -0 -0 -0 -0 -0 -0 -0 -0 -0 -0 -0 -0 -0 -0 -0 -0 0 -0 0 -0 -0 0 0 0 0 0 0 0 -0 -1 -0 0 0 0 0 -0 -1 0 nan
nan -0 -0 -0 -0 -0 -0 -0 -0 -0 0 0 -0 0 -0 -0 -0 -0 -0 -0 -0 0 -0 -0 0 0 0 0 -0 -0 0 0 0 -0 -0 -0 -1 -0 0 0 0 0 -0 -0 -0 -0 nan
nan -0 -0 -0 -0 -0 -0 -0 -0 -0 -0 0 0 0 -0 -0 -0 -0 -0 -0 -0 0 0 -0 -0 0 0 0 0 -0 0 0 0 0 0 -0 -0 0 -0 -0 0 -0 -0 0 0 -0 nan
nan -0 -0 -0 -0 -0 -0 -0 -0 -0 -0 -0 0 0 -0 -0 -0 0 0 0 0 -0 0 -0 0 0 0 0 0 0 0 0 -0 -0 -0 -0 -0 0 -0 -0 -0 0 -0 0 0 0 nan
nan -1 -0 -0 -0 -0 -0 -0 -0 -0 -0 -0 -0 -0 0 -0 -0 -0 0 0 0 -0 -0 -0 -0 0 -0 -0 -0 0 0 0 0 0 0 -0 -0 0 0 -0 -0 -0 -0 -0 -0 -0 nan
nan -1 -1 -1 -1 -1 -1 -0 -0 -0 -0 -0 -0 -0 0 0 0 -0 0 0 -0 0 -0 -0 0 -0 -0 -0 -0 0 0 0 -0 0 -0 -1 -0 -0 0 0 0 -1 -0 -0 -0 -0 nan
nan -0 -0 -1 -1 -1 -1 -1 -1 -1 -1 -0 -0 -0 0 0 0 0 0 -0 0 -0 -0 0 0 0 -0 0 -0 0 0 0 -0 -0 0 -0 -1 -0 0 0 0 0 -0 -0 -0 0 nan
nan 0 -0 -0 -0 -0 -0 -1 -2 -1 -1 -1 -1 -1 0 0 0 0 0 -0 -0 -0 0 0 0 0 -0 0 0 -0 0 -0 0 -0 -0 0 -1 -0 -0 0 -0 0 0 -0 0 0 nan
nan -0 -0 -1 -0 -0 -0 0 -1 -2 -1 -1 -1 -1 -0 0 0 0 -0 -0 -1 -0 -0 0 -0 0 0 0 0 -0 -0 -0 -0 0 -0 0 -0 -0 -0 -0 0 0 0 -0 0 -0 nan
nan -1 -1 -1 -1 -1 -0 0 0 -1 -2 -1 -1 -1 0 0 0 0 0 -1 -0 0 0 0 0 0 0 0 0 0 -0 -0 -0 0 0 0 -0 -0 -0 0 0 0 0 0 0 -0 nan
nan -1 -1 -1 -1 -1 -1 -0 -0 0 -1 -1 -0 -0 -0 0 0 0 -0 -1 0 0 0 0 0 0 0 0 0 0 -0 0 -0 -0 0 0 0 -0 -1 -0 -0 -0 0 -0 -0 0 nan
nan -1 -1 -1 -1 -1 -1 -1 -0 -0 0 -1 -0 -0 -0 1 0 -0 -1 -0 0 -0 0 -0 -0 -0 0 0 0 -0 0 0 0 0 0 -0 0 -0 -1 -0 -0 -0 0 0 -0 -0 nan
nan -1 -1 -1 -1 -1 -1 -1 -1 -0 -0 -0 0 -0 -0 1 -0 -0 -0 -0 -0 -0 0 -0 -0 -0 0 0 -0 -0 0 0 0 0 0 -0 0 -0 0 -0 -0 -0 -0 -0 0 0 nan
nan 0 0 -0 -1 -1 -1 -1 -1 -0 -0 -0 -0 -0 0 0 -0 -0 0 -0 -0 0 0 0 0 0 0 -0 -0 0 0 0 0 0 0 0 0 -0 -0 -0 -0 -0 -0 0 0 -0 nan
nan -0 -0 -0 -0 -0 -1 -1 -1 -1 -0 -0 -0 -0 -0 -0 -0 0 0 -0 -0 -0 -0 -0 -0 0 0 -0 -0 -0 -0 -0 -0 0 0 0 -0 0 -0 -0 0 -0 -0 -0 -0 -0 nan
nan -0 -0 -0 -0 -0 -0 -1 -1 -1 -1 -0 -0 -0 -1 -1 -0 0 -0 -0 -0 -0 -0 0 0 0 -0 -2 -2 -0 -0 0 0 -1 -0 0 0 0 -0 -0 -0 -0 -0 0 -0 0 nan
nan -0 -0 -0 -0 -0 0 -1 -1 -0 -0 -0 -0 -1 -0 -1 -1 -1 -1 -0 0 -0 -1 -2 1 -0 -1 -0 1 1 0 1 1 0 -0 -0 -0 -0 -0 -0 -0 -0 0 0 0 0 nan
nan 0 0 -0 -0 -0 0 0 -0 -0 -0 -0 -0 -0 -0 -1 -1 -1 -1 -1 -1 -0 -0 -1 -2 -1 0 1 -0 0 -0 -0 0 -0 0 0 -0 0 0 -0 -1 -0 0 -0 -0 0 nan
nan 0 0 0 -0 -0 -0 0 0 0 -0 -0 -0 -0 -0 -1 -0 -0 -1 -1 -1 -1 -1 -1 -1 -0 1 0 0 0 -0 0 0 0 -0 0 0 0 0 -0 -0 -0 0 -0 -0 0 nan
nan 0 0 0 0 -0 0 0 0 0 -0 -0 -0 -0 -0 -1 -2 -1 -1 -1 -1 -0 -0 -0 -0 0 2 0 0 0 -0 -0 -0 -0 0 0 0 0 0 -0 -1 -0 0 0 0 0 nan
nan -0 0 1 -0 -0 0 0 -0 0 -0 -0 -0 -0 -0 -1 -1 -2 -1 -1 -1 -1 -1 -1 0 0 0 -0 0 0 -0 0 0 -0 -0 -1 -1 -0 -0 -0 -1 -0 -0 0 -0 0 nan
nan nan nan nan nan nan nan nan nan nan nan nan nan nan nan nan nan nan nan nan nan nan nan nan nan nan nan nan nan nan nan nan nan nan nan nan nan nan nan nan nan nan nan nan nan nan nan
Wind_Speed
7 7 8 9 10 11 12 13 15 16 18 18 12 7 7 8 8 9 9 10 9 7 8 11 11 11 10 6 6 10 9 11 14 13 12 14 11 8 4 6 11 5 6 17 21 21 20
5 6 7 8 9 10 11 13 15 17 19 20 16 10 9 9 10 10 9 8 8 7 7 10 11 11 6 3 11 11 10 10 11 11 8 11 6 6 6 5 2 7 15 19 19 23 20
4 5 6 7 8 9 10 12 14 16 18 21 19 11 14 13 11 10 9 7 6 6 5 9 11 11 5 4 13 10 12 13 13 13 10 7 6 4 7 5 5 17 8 11 13 16 8
6 7 8 8 8 9 10 11 13 15 16 19 19 13 15 14 13 11 8 5 4 4 5 7 8 8 4 6 10 12 14 12 9 12 11 8 7 7 4 7 7 4 3 4 7 8 8
7 8 8 9 9 10 10 11 12 14 16 18 19 13 15 13 12 11 8 5 3 4 5 7 5 4 5 8 10 16 12 12 13 5 9 8 8 4 4 2 4 2 3 5 6 3 5
7 7 8 8 8 9 9 10 12 14 15 17 18 14 14 12 11 10 8 6 5 5 5 4 3 3 4 6 12 15 9 12 8 11 7 7 5 2 2 2 4 7 6 5 8 4 2
6 6 7 8 8 9 10 11 11 13 15 17 18 15 14 13 9 9 8 4 4 1 5 5 5 6 11 12 12 5 8 11 6 6 2 6 1 6 8 6 8 7 6 11 16 7 4
5 6 6 7 7 9 9 10 11 12 13 14 16 16 14 13 8 9 7 3 3 5 7 6 11 14 11 10 5 5 5 4 2 4 8 4 7 10 7 7 8 8 9 10 8 3 6
4 4 5 6 7 8 9 10 11 12 13 13 14 14 14 13 6 9 7 5 4 5 3 4 5 6 6 7 5 3 3 4 5 3 5 4 9 7 5 8 10 5 6 5 7 6 4
4 4 5 6 7 7 8 8 10 11 11 13 13 14 14 12 4 8 5 6 4 4 4 3 1 1 3 5 4 4 6 3 3 4 5 6 5 2 6 7 3 6 4 5 10 5 3
5 6 6 7 7 8 9 9 10 10 11 12 12 13 12 10 7 5 6 4 2 1 4 3 2 3 4 3 9 2 4 3 4 6 2 8 5 3 5 4 2 10 9 14 13 5 4
10 10 10 10 10 10 11 11 12 12 12 12 12 12 12 10 7 7 5 3 1 5 3 1 1 2 3 4 3 2 3 6 7 4 4 9 5 3 4 7 5 8 8 8 3 3 2
13 14 14 15 14 14 14 15 15 15 15 14 14 13 12 10 7 5 4 1 4 4 2 2 2 1 2 3 3 1 2 5 3 7 6 7 3 1 1 6 5 10 6 4 6 5 4
15 15 18 19 18 17 17 17 17 17 17 16 15 15 14 11 6 3 2 4 3 4 4 0 2 2 3 1 2 2 3 2 1 0 3 2 8 1 1 1 3 4 2 4 3 3 5
16 17 19 19 20 21 20 21 20 20 18 19 17 16 13 10 6 4 1 2 7 6 2 1 2 1 2 2 2 2 3 3 3 2 1 5 6 4 3 1 3 6 4 3 1 2 3
22 22 22 22 21 20 21 21 20 23 20 20 19 17 12 6 4 5 3 6 4 2 4 2 4 4 3 2 1 0 2 3 4 2 4 2 6 3 1 1 2 3 3 4 3 3 4
19 19 20 21 21 20 19 19 20 19 22 17 16 9 4 4 6 4 3 7 4 3 4 4 3 3 6 3 3 3 4 2 3 4 3 2 3 6 3 1 2 2 2 1 2 4 2
14 15 15 17 17 18 17 17 17 17 17 13 7 3 3 5 2 4 3 5 2 4 6 4 2 5 5 5 3 4 4 2 6 4 2 4 2 5 5 4 1 1 2 2 4 5 2
14 14 15 16 16 16 16 16 15 13 10 12 6 6 8 10 3 3 6 5 4 5 5 6 5 6 3 5 3 6 3 3 6 4 3 2 2 4 8 2 2 1 3 3 1 2 5
16 17 15 15 15 16 16 15 14 11 6 8 5 3 6 11 9 3 3 5 5 6 5 7 4 5 3 4 5 3 3 4 8 7 6 2 2 6 6 8 0 6 4 4 2 3 3
17 16 15 15 15 13 14 13 13 10 8 8 6 6 5 3 6 7 4 4 3 3 7 8 2 8 7 6 4 6 6 3 3 5 4 5 5 4 7 13 9 12 15 11 9 8 6
16 14 11 14 16 18 19 19 17 12 7 9 5 5 7 9 13 5 5 4 10 7 7 5 6 6 9 7 10 8 7 5 6 4 6 3 4 2 6 5 6 9 12 12 14 9 9
12 13 12 13 16 17 19 18 16 12 9 4 6 9 12 8 5 10 6 6 7 7 12 20 15 7 8 18 30 10 9 6 8 9 8 7 4 1 5 6 10 5 4 3 2 2 3
17 13 14 13 14 15 17 19 17 12 6 7 10 13 6 10 10 13 20 24 19 18 14 17 18 9 10 12 11 8 7 8 9 9 13 6 5 3 4 5 1 4 2 4 4 0 2
14 17 15 15 13 15 17 17 16 15 10 7 8 10 7 12 21 22 24 18 25 26 27 25 28 28 13 9 2 2 2 4 4 1 6 5 5 2 2 3 6 2 4 5 5 4 3
18 16 17 15 14 14 15 17 15 14 13 11 11 13 16 15 13 24 26 28 17 15 14 25 30 18 18 5 4 8 8 6 4 1 3 3 4 4 2 4 6 4 3 3 3 4 6
19 19 19 19 19 18 17 18 19 18 12 15 14 13 19 25 36 36 21 17 17 16 13 20 7 11 22 5 9 7 8 7 8 9 7 4 2 10 5 5 7 7 7 7 4 6 12
22 22 22 23 20 20 21 22 19 20 16 16 19 16 18 24 40 42 43 41 30 27 16 11 6 4 1 5 7 5 5 8 7 8 10 11 9 5 4 4 8 14 7 7 4 13 14
23 24 24 24 24 22 22 23 22 22 20 18 23 22 23 28 45 50 47 44 45 42 43 32 37 22 15 5 4 3 5 3 8 10 4 5 8 8 10 8 5 26 4 9 15 18 11
Wind_Direction
71 67 63 56 54 52 47 40 34 27 21 15 4 350 334 327 324 318 302 289 287 306 339 356 353 357 7 9 349 352 4 4 23 30 27 8 25 9 1 324 335 256 320 323 311 305 303
65 61 50 46 45 43 39 34 29 22 17 14 10 2 351 341 332 324 315 298 281 287 321 347 351 352 348 354 352 355 357 354 11 19 40 8 356 335 287 278 263 278 299 287 289 288 283
41 37 41 39 30 31 29 26 23 20 15 11 9 3 357 348 344 336 325 309 283 274 307 337 344 342 311 326 342 343 350 356 356 352 11 356 343 346 320 285 281 294 286 294 275 263 251
20 16 18 17 18 17 18 19 16 14 11 11 8 7 360 356 354 348 335 318 285 270 300 321 337 333 287 319 330 340 341 340 336 320 334 351 1 303 237 290 309 331 320 326 282 286 266
21 15 12 10 13 13 9 8 10 9 7 7 8 9 4 2 3 4 2 349 316 289 294 306 317 337 304 325 322 330 323 330 333 322 303 316 294 269 294 289 325 19 267 273 302 334 303
23 16 10 7 8 10 7 5 4 4 4 4 7 7 5 4 7 10 3 342 316 299 291 290 238 297 255 308 311 316 317 333 334 336 322 226 226 273 303 93 303 303 296 283 256 246 256
19 12 5 1 3 1 3 360 0 1 1 1 3 3 3 3 8 14 5 348 353 349 296 266 266 263 284 300 306 313 329 325 298 294 278 219 261 263 250 217 229 253 263 264 280 247 214
18 3 1 356 358 355 355 355 355 355 358 1 0 0 359 359 10 12 17 35 13 321 312 290 255 274 286 305 304 291 291 319 297 286 306 4 250 268 263 283 266 258 269 279 278 227 219
9 5 357 353 347 347 348 347 346 349 349 357 357 359 357 357 12 12 30 30 1 340 307 307 270 282 279 297 293 270 276 291 246 267 285 227 253 313 314 305 311 273 246 272 267 317 269
8 357 351 346 344 341 337 337 336 339 344 345 352 356 355 356 358 2 2 359 356 344 60 279 271 282 303 309 292 266 280 299 294 273 298 254 268 312 329 298 330 308 238 292 295 356 281
346 342 332 330 328 329 327 329 328 329 332 337 342 347 353 360 344 354 343 341 338 21 45 245 252 297 287 256 308 283 290 247 239 258 44 261 295 315 308 259 12 253 298 287 289 217 31
337 332 328 324 320 319 320 323 322 324 325 328 332 338 343 342 338 342 340 325 309 42 269 310 198 283 328 208 247 261 258 265 282 291 214 244 268 196 233 296 256 285 308 314 51 95 37
317 314 312 312 312 314 315 316 318 320 321 325 324 327 329 328 319 322 320 284 29 121 264 223 242 49 351 279 307 174 273 330 3 6 343 321 312 158 264 323 336 18 18 351 2 5 241
309 313 311 313 313 308 308 309 313 316 319 320 322 321 321 314 299 279 297 45 98 248 245 203 197 291 199 51 247 281 304 344 310 191 298 27 332 307 186 228 272 309 93 126 301 316 287
313 309 308 309 307 309 307 309 307 307 313 315 320 316 312 307 278 225 159 58 210 206 163 203 322 284 239 233 248 18 223 202 161 121 69 359 277 326 206 199 119 320 27 181 230 270 22
299 301 303 305 306 304 301 302 306 308 308 317 323 317 300 282 209 190 95 237 239 187 132 129 215 191 242 214 199 351 251 195 172 155 140 287 299 255 310 350 234 190 287 25 14 341 321
299 298 296 296 299 303 305 302 297 305 307 315 322 315 262 231 188 194 185 232 264 217 191 179 242 231 228 239 192 244 252 194 167 180 165 208 167 291 340 226 234 355 12 311 187 143 209
325 324 323 317 309 304 304 304 305 301 310 317 306 290 242 199 206 226 205 213 209 187 200 235 236 222 211 192 236 239 247 236 158 152 204 202 176 277 264 302 317 191 221 129 117 300 262
338 331 325 322 324 322 313 306 307 307 305 319 290 261 232 212 216 235 270 265 233 172 200 194 223 219 183 205 223 208 234 148 165 149 192 169 265 322 336 339 310 274 213 214 142 106 231
351 351 344 339 334 336 330 322 311 305 287 280 295 308 225 211 237 216 264 251 237 219 228 202 213 146 160 233 232 261 234 200 189 175 162 129 245 200 211 240 31 288 261 290 237 187 247
346 357 360 355 359 355 348 337 324 299 255 257 250 253 276 260 261 230 206 254 295 252 216 209 251 212 182 205 207 217 224 172 183 196 168 148 222 229 249 266 275 270 278 279 214 223 221
337 353 353 343 340 349 341 338 326 313 281 257 268 291 301 292 300 283 202 237 224 249 166 228 211 246 199 209 205 207 181 192 196 181 174 196 266 285 296 279 268 284 273 263 255 243 246
332 337 348 335 328 336 344 351 343 337 328 256 260 282 284 261 255 266 247 241 253 250 248 237 217 217 197 221 238 233 211 205 187 159 188 164 189 100 264 331 320 289 225 260 212 194 197
322 331 335 340 340 339 343 346 354 355 341 313 306 325 286 271 265 262 267 268 276 279 284 280 271 199 242 255 232 222 223 227 195 206 177 167 162 163 264 348 323 250 171 228 173 262 305
316 315 325 320 325 336 330 335 347 355 346 291 311 288 283 273 271 274 281 283 278 269 269 275 270 279 243 174 104 262 324 344 246 29 212 178 148 216 214 231 292 286 199 178 190 236 211
310 309 311 307 312 312 329 331 327 336 343 331 290 289 279 282 262 261 265 270 276 280 281 272 275 260 210 158 170 204 217 192 222 236 9 109 108 151 172 222 227 235 181 163 122 266 180
299 304 308 309 311 311 312 317 317 323 328 321 311 307 285 281 284 256 261 270 272 261 259 265 274 221 207 176 216 210 228 186 192 181 177 149 181 208 214 246 281 246 161 146 142 245 165
299 296 297 305 299 305 304 303 305 306 315 308 303 300 294 285 277 271 271 263 266 264 262 278 241 206 250 211 208 202 216 215 198 179 178 170 161 184 178 194 266 172 119 172 186 140 153
299 297 289 291 298 298 302 302 303 302 302 300 293 298 297 276 272 277 271 266 258 259 257 261 249 269 217 196 215 179 231 190 193 230 152 197 192 178 183 203 210 181 188 183 161 160 161
Height
1569 1569 1568 1567 1566 1565 1564 1563 1562 1560 1558 1555 1553 1551 1551 1550 1548 1547 1547 1547 1547 1547 1546 1544 1543 1542 1541 1539 1539 1536 1534 1531 1528 1526 1525 1525 1524 1523 1524 1522 1519 1516 1515 1511 1508 1506 1503
1570 1570 1569 1569 1568 1566 1565 1564 1563 1561 1559 1556 1553 1551 1550 1548 1547 1545 1544 1544 1545 1545 1545 1544 1542 1542 1541 1540 1538 1536 1533 1531 1528 1527 1526 1525 1524 1524 1523 1521 1520 1515 1513 1508 1505 1502 1501
1572 1571 1570 1570 1569 1568 1567 1565 1564 1562 1559 1557 1554 1551 1550 1548 1545 1544 1543 1543 1543 1543 1543 1543 1542 1541 1540 1541 1537 1536 1533 1530 1528 1527 1525 1524 1524 1524 1522 1520 1516 1513 1513 1507 1499 1497 1497
1573 1573 1572 1571 1570 1569 1568 1566 1564 1562 1560 1557 1554 1551 1549 1547 1545 1543 1542 1541 1541 1542 1542 1541 1540 1539 1538 1537 1536 1535 1532 1530 1528 1527 1524 1523 1522 1522 1521 1518 1514 1512 1511 1512 1498 1495 1493
1574 1574 1573 1572 1571 1569 1568 1566 1564 1562 1560 1557 1554 1551 1548 1546 1544 1542 1541 1541 1540 1540 1540 1539 1539 1538 1537 1536 1534 1533 1532 1530 1528 1526 1524 1522 1522 1521 1520 1520 1520 1516 1521 1511 1501 1491 1490
1574 1574 1573 1572 1571 1569 1568 1566 1564 1562 1560 1557 1554 1551 1548 1546 1544 1542 1541 1540 1539 1539 1538 1537 1537 1540 1536 1535 1532 1530 1530 1528 1527 1525 1523 1523 1521 1521 1521 1522 1529 1518 1516 1506 1503 1491 1490
1574 1574 1573 1572 1571 1569 1568 1566 1564 1563 1561 1558 1555 1552 1549 1546 1544 1542 1541 1540 1541 1541 1538 1536 1536 1533 1532 1532 1530 1529 1528 1527 1526 1525 1524 1521 1523 1523 1516 1509 1507 1506 1507 1504 1491 1485 1487
1574 1574 1573 1572 1570 1569 1567 1566 1564 1562 1560 1558 1556 1553 1550 1547 1544 1542 1541 1540 1540 1542 1536 1533 1535 1533 1532 1531 1529 1526 1527 1527 1525 1525 1521 1523 1522 1508 1506 1504 1503 1501 1502 1498 1486 1480 1484
1573 1572 1572 1571 1570 1568 1567 1565 1564 1561 1560 1557 1555 1552 1550 1547 1545 1543 1542 1541 1540 1539 1539 1534 1533 1533 1533 1532 1529 1526 1526 1525 1523 1523 1519 1521 1510 1505 1503 1502 1501 1497 1497 1492 1489 1481 1476
1573 1572 1571 1569 1568 1567 1566 1564 1562 1560 1558 1557 1554 1551 1549 1547 1547 1544 1542 1541 1539 1539 1546 1536 1533 1532 1532 1530 1529 1527 1525 1526 1522 1520 1516 1515 1504 1504 1505 1503 1499 1501 1485 1485 1483 1488 1499
1573 1571 1570 1569 1567 1566 1564 1563 1561 1559 1557 1555 1553 1551 1548 1546 1545 1543 1544 1541 1540 1539 1569 1534 1532 1531 1529 1531 1529 1525 1526 1524 1522 1518 1520 1515 1506 1505 1506 1499 1497 1495 1485 1483 1480 1485 1489
1572 1571 1570 1568 1566 1564 1563 1562 1560 1558 1556 1554 1552 1550 1547 1546 1544 1543 1541 1541 1542 1551 1560 1533 1530 1529 1530 1527 1525 1523 1523 1524 1520 1517 1514 1510 1503 1503 1503 1496 1494 1488 1485 1479 1479 1485 1503
1572 1570 1568 1567 1565 1563 1562 1560 1559 1556 1554 1552 1550 1548 1546 1544 1544 1542 1541 1541 1552 1562 1532 1531 1529 1528 1529 1528 1524 1524 1523 1524 1527 1533 1524 1512 1503 1500 1501 1501 1492 1495 1497 1516 1509 1506 1499
1570 1568 1567 1565 1563 1561 1560 1558 1556 1554 1553 1550 1548 1546 1544 1543 1541 1540 1541 1543 1553 1536 1530 1527 1528 1527 1529 1526 1524 1523 1524 1527 1523 1524 1534 1536 1524 1500 1499 1501 1502 1502 1500 1527 1512 1519 1508
1567 1566 1564 1562 1561 1560 1557 1555 1553 1551 1550 1547 1545 1543 1541 1540 1539 1540 1541 1556 1543 1532 1524 1526 1526 1528 1527 1525 1526 1523 1521 1525 1522 1522 1529 1534 1517 1500 1498 1498 1501 1498 1507 1498 1506 1503 1522
1563 1562 1560 1559 1558 1556 1554 1552 1551 1548 1548 1545 1543 1540 1537 1537 1537 1539 1541 1542 1529 1522 1524 1525 1528 1525 1526 1523 1526 1525 1521 1517 1519 1520 1521 1524 1530 1502 1497 1498 1498 1499 1500 1510 1513 1513 1504
1558 1556 1555 1554 1554 1552 1551 1549 1547 1546 1544 1544 1542 1539 1535 1535 1537 1538 1544 1535 1522 1522 1524 1526 1525 1525 1526 1523 1523 1525 1520 1517 1517 1520 1520 1521 1524 1510 1499 1501 1499 1501 1500 1500 1503 1511 1517
1556 1554 1552 1551 1550 1548 1547 1546 1544 1543 1542 1542 1540 1539 1535 1534 1538 1534 1533 1524 1520 1520 1522 1523 1523 1522 1521 1522 1523 1524 1520 1514 1516 1517 1520 1520 1524 1529 1505 1498 1497 1496 1497 1499 1515 1507 1510
1554 1553 1551 1550 1548 1545 1544 1542 1542 1541 1541 1541 1538 1535 1531 1533 1536 1532 1524 1520 1518 1520 1520 1520 1519 1519 1518 1520 1524 1519 1515 1515 1515 1517 1520 1520 1524 1536 1509 1503 1497 1496 1495 1494 1498 1505 1506
1553 1552 1550 1548 1545 1544 1542 1540 1539 1539 1539 1541 1540 1536 1529 1527 1526 1525 1523 1518 1518 1515 1515 1514 1514 1514 1517 1520 1518 1516 1514 1513 1513 1513 1514 1517 1522 1520 1522 1508 1504 1503 1495 1496 1499 1514 1498
1554 1552 1551 1548 1544 1542 1540 1538 1536 1535 1537 1539 1538 1532 1527 1526 1523 1521 1521 1515 1513 1513 1513 1513 1514 1512 1514 1519 1514 1515 1512 1512 1514 1515 1514 1514 1521 1517 1509 1505 1502 1498 1495 1492 1498 1492 1492
1553 1551 1549 1547 1544 1541 1539 1536 1533 1532 1533 1536 1534 1532 1526 1523 1521 1519 1519 1514 1512 1511 1511 1511 1512 1506 1510 1512 1506 1506 1506 1507 1507 1513 1516 1515 1517 1510 1508 1497 1500 1496 1487 1483 1481 1482 1482
1551 1549 1547 1546 1544 1540 1538 1535 1532 1530 1531 1532 1529 1529 1528 1518 1517 1518 1515 1510 1507 1507 1502 1501 1501 1504 1504 1501 1497 1498 1497 1497 1497 1504 1510 1514 1517 1517 1512 1503 1498 1488 1477 1476 1474 1473 1473
1548 1546 1544 1542 1542 1540 1537 1534 1533 1531 1532 1532 1531 1531 1529 1514 1514 1512 1512 1510 1507 1505 1503 1500 1498 1497 1494 1493 1493 1493 1493 1494 1496 1497 1498 1507 1511 1515 1516 1508 1506 1472 1473 1473 1472 1474 1473
1545 1543 1541 1540 1540 1538 1536 1535 1533 1530 1530 1529 1530 1530 1526 1512 1512 1510 1511 1506 1502 1500 1497 1495 1493 1493 1490 1491 1495 1495 1497 1496 1492 1495 1496 1497 1504 1510 1515 1510 1488 1469 1471 1472 1471 1470 1469
1541 1539 1538 1537 1537 1536 1534 1533 1532 1530 1528 1527 1527 1527 1525 1515 1499 1507 1507 1508 1501 1496 1492 1488 1487 1487 1486 1487 1492 1495 1489 1488 1496 1497 1494 1495 1499 1505 1513 1505 1489 1465 1465 1467 1468 1471 1466
1536 1535 1534 1533 1532 1531 1530 1530 1528 1526 1525 1524 1523 1523 1521 1510 1494 1500 1499 1497 1498 1493 1485 1485 1483 1480 1478 1481 1483 1487 1482 1473 1483 1490 1500 1501 1503 1499 1506 1502 1485 1464 1462 1466 1474 1466 1461
1531 1529 1529 1527 1526 1526 1525 1524 1523 1522 1521 1520 1518 1518 1517 1505 1485 1489 1490 1489 1493 1493 1489 1482 1480 1475 1478 1476 1474 1472 1474 1464 1467 1467 1475 1477 1491 1496 1500 1503 1489 1456 1463 1467 1458 1457 1460
1525 1523 1522 1522 1521 1519 1518 1518 1517 1516 1515 1514 1512 1511 1509 1503 1477 1481 1475 1474 1481 1480 1484 1480 1472 1468 1463 1465 1464 1461 1459 1458 1454 1454 1456 1460 1451 1463 1464 1459 1448 1449 1449 1451 1453 1455 1459